Baton Rouge, LA

2:44 PM CDT on May 26, 2017 (GMT -0500)
Baton Rouge Metro-Ryan

Weather History for KBTR - September, 2014

Change the Weather History Date:

Sunday, September 21, 2014

  Actual Average Record
Temperature  
Mean Temperature 80 °F 77 °F  
Max Temperature 90 °F 88 °F 100 °F (1921)
Min Temperature 69 °F 67 °F 44 °F (1897)
Degree Days  
Heating Degree Days 0 0  
Month to date heating degree days 0 0  
Since 1 July heating degree days 0 0  
Cooling Degree Days 15 12  
Month to date cooling degree days 346 312  
Year to date cooling degree days 2374 2473  
Growing Degree Days 30 (Base 50)    
Moisture  
Dew Point 68 °F    
Average Humidity 71    
Maximum Humidity 97    
Minimum Humidity 44    
Precipitation  
Precipitation 0.00 in 0.14 in 5.00 in (1909)
Month to date precipitation 3.00 3.26  
Year to date precipitation 50.12 44.97  
Snow  
Snow 0.00 in - - ()
Month to date snowfall 0.0  
Since 1 July snowfall 0.0  
Since 1 September snowfall 0.0  
Snow Depth 0.00 in    
Sea Level Pressure  
Sea Level Pressure 30.01 in    
Wind  
Wind Speed 4 mph (NE)    
Max Wind Speed 13 mph    
Max Gust Speed 18 mph    
Visibility 9 miles    
Events      
T = Trace of Precipitation, MM = Missing Value Source: NWS Daily Summary

Daily Weather History Graph

Daily Weather History Graph

Search for Another Location

Airport or City:

Trip Planner

Search our weather history database for the weather conditions in past years. The results will help you decide how hot, cold, wet, or windy it might be!

Date:

Astronomy

Sep. 21, 2014 Rise Set
Actual Time 6:52 AM CDT 7:02 PM CDT
Civil Twilight 6:28 AM CDT 7:26 PM CDT
Nautical Twilight 6:00 AM CDT 7:54 PM CDT
Astronomical Twilight 5:32 AM CDT 8:22 PM CDT
Moon 4:34 AM CDT (9/21) 5:32 PM CDT (9/21)
Length of Visible Light 12h 58m
Length of Day
12h 10m
Waning Crescent, 6% of the Moon is Illuminated
Sep 21
Waning Crescent
Sep 24
New
Oct 1
First Quarter
Oct 8
Full
Oct 15
Last Quarter

Hourly Weather History & Observations

Time (CDT) Temp. Heat Index Dew Point Humidity Pressure Visibility Wind Dir Wind Speed Gust Speed Precip Events Conditions
12:53 AM 71.1 °F - 69.1 °F 93% 29.99 in 9.0 mi NNE 3.5 mph - N/A   Clear
1:53 AM 71.1 °F - 69.1 °F 93% 29.98 in 8.0 mi Calm Calm - N/A   Clear
2:53 AM 71.1 °F - 69.1 °F 93% 29.99 in 7.0 mi NNE 4.6 mph - N/A   Clear
3:53 AM 70.0 °F - 68.0 °F 93% 29.99 in 6.0 mi Calm Calm - N/A   Clear
4:53 AM 70.0 °F - 68.0 °F 93% 30.00 in 5.0 mi Calm Calm - N/A   Clear
5:53 AM 69.1 °F - 66.9 °F 93% 30.01 in 8.0 mi ENE 3.5 mph - N/A   Clear
6:53 AM 69.1 °F - 66.9 °F 93% 30.02 in 7.0 mi NE 4.6 mph - N/A   Clear
7:53 AM 71.1 °F - 68.0 °F 90% 30.03 in 9.0 mi ENE 4.6 mph - N/A   Clear
8:53 AM 75.2 °F - 69.8 °F 83% 30.04 in 10.0 mi ENE 5.8 mph - N/A   Clear
9:53 AM 80.1 °F 82.9 °F 69.1 °F 69% 30.05 in 10.0 mi NE 6.9 mph - N/A   Clear
10:53 AM 82.9 °F 85.8 °F 68.0 °F 60% 30.05 in 10.0 mi NNE 6.9 mph - N/A   Clear
11:53 AM 84.9 °F 87.6 °F 66.9 °F 55% 30.05 in 10.0 mi Variable 6.9 mph - N/A   Clear
12:53 PM 87.1 °F 88.9 °F 64.9 °F 48% 30.04 in 10.0 mi NNE 11.5 mph - N/A   Clear
1:53 PM 89.1 °F 91.3 °F 66.0 °F 46% 30.01 in 10.0 mi NNE 8.1 mph 17.3 mph N/A   Clear
2:53 PM 90.0 °F 91.7 °F 64.9 °F 43% 29.99 in 10.0 mi ENE 10.4 mph - N/A   Scattered Clouds
3:53 PM 89.1 °F 91.0 °F 64.9 °F 45% 29.98 in 10.0 mi NNE 6.9 mph - N/A   Clear
4:53 PM 90.0 °F 92.4 °F 66.0 °F 45% 29.97 in 10.0 mi NNE 6.9 mph - N/A   Scattered Clouds
5:53 PM 87.1 °F 89.2 °F 66.0 °F 49% 29.97 in 10.0 mi NE 6.9 mph - N/A   Scattered Clouds
6:53 PM 82.0 °F 84.5 °F 66.9 °F 60% 29.98 in 10.0 mi East 4.6 mph - N/A   Clear
7:53 PM 75.9 °F - 70.0 °F 82% 29.99 in 10.0 mi Calm Calm - N/A   Clear
8:53 PM 73.9 °F - 69.1 °F 85% 30.00 in 10.0 mi Calm Calm - N/A   Clear
9:53 PM 73.0 °F - 70.0 °F 90% 30.02 in 9.0 mi Calm Calm - N/A   Clear
10:53 PM 71.1 °F - 69.1 °F 93% 30.02 in 10.0 mi Calm Calm - N/A   Clear
11:53 PM 70.0 °F - 68.0 °F 93% 30.02 in 10.0 mi Calm Calm - N/A   Clear